Location: Eschentzwiller
(47.7125°N, 7.3981°E)
Time: 23:48:54
(UTC+00:00)

ATLAS 2AS CENTAUR R/B - Pass Details

Date: 27 October 2020
Orbit: 939 x 1273 km, 63.7° (Epoch: 23 November)

Event Time Altitude Azimuth Distance (km) Brightness Sun altitude
Rises 19:43:33 0° 319° (NW) 4,148 6.6 -34.4°
Reaches altitude 10° 19:46:24 10° 319° (NW) 3,141 5.8 -34.9°
Enters shadow 19:52:43 64° 304° (NW) 1,251 3.1 -35.9°
